Charlotte, MI

9:52 AM EST on February 25, 2017 (GMT -0500)
Charlotte

Weather History for KFPK - February, 2013

Change the Weather History Date:

Saturday, February 16, 2013

  Actual Average (KLAN) Record (KLAN)
Temperature  
Mean Temperature 18 °F -  
Max Temperature 23 °F 30 °F 59 °F (1921)
Min Temperature 12 °F 15 °F -22 °F (1896)
Degree Days  
Heating Degree Days 48    
Moisture  
Dew Point 13 °F    
Average Humidity 79    
Maximum Humidity 92    
Minimum Humidity 51    
Precipitation  
Precipitation 0.00 in - - ()
Sea Level Pressure  
Sea Level Pressure 30.02 in    
Wind  
Wind Speed 4 mph (West)    
Max Wind Speed 13 mph    
Max Gust Speed 18 mph    
Visibility 9 miles    
Events Rain , Snow    
Averages and records for this station are not official NWS values.
T = Trace of Precipitation, MM = Missing Value Source: NWS Daily Summary

Daily Weather History Graph

Daily Weather History Graph

Search for Another Location

Airport or City:

Trip Planner

Search our weather history database for the weather conditions in past years. The results will help you decide how hot, cold, wet, or windy it might be!

Date:

Astronomy

Feb. 16, 2013 Rise Set
Actual Time 7:34 AM EST 6:12 PM EST
Civil Twilight 7:05 AM EST 6:41 PM EST
Nautical Twilight 6:32 AM EST 7:14 PM EST
Astronomical Twilight 5:59 AM EST 7:47 PM EST
Moon 10:37 AM EST (2/16) 12:21 AM EST (2/16)
Length of Visible Light 11h 36m
Length of Day
10h 38m
Waxing Crescent, 39% of the Moon is Illuminated
Feb 16
Waxing Crescent
Feb 17
First Quarter
Feb 25
Full
Mar 4
Last Quarter
Mar 11
New

Hourly Weather History & Observations

Time (EST) Temp. Windchill Dew Point Humidity Pressure Visibility Wind Dir Wind Speed Gust Speed Precip Events Conditions
12:15 AM 20.7 °F 14.2 °F 16.0 °F 82% 30.08 in 10.0 mi West 4.6 mph - N/A   Overcast
12:35 AM 19.9 °F - 15.8 °F 84% 30.07 in 7.0 mi Calm Calm - N/A Snow Light Snow
12:55 AM 19.4 °F - 15.8 °F 86% 30.06 in 10.0 mi Calm Calm - N/A   Overcast
1:15 AM 19.9 °F 14.9 °F 16.2 °F 85% 30.06 in 10.0 mi SW 3.5 mph - N/A   Overcast
1:35 AM 19.6 °F - 15.8 °F 85% 30.06 in 10.0 mi Calm Calm - N/A   Overcast
1:55 AM 18.9 °F 13.7 °F 15.8 °F 88% 30.06 in 10.0 mi SW 3.5 mph - N/A   Overcast
2:15 AM 19.9 °F - 17.1 °F 89% 30.05 in 10.0 mi Calm Calm - N/A   Overcast
2:35 AM 20.1 °F - 17.4 °F 89% 30.05 in 10.0 mi Calm Calm - N/A   Overcast
2:55 AM 20.1 °F - 17.1 °F 88% 30.04 in 10.0 mi Calm Calm - N/A Snow Light Snow
3:15 AM 19.9 °F 14.9 °F 16.7 °F 87% 30.04 in 7.0 mi WSW 3.5 mph - N/A Snow Light Snow
3:35 AM 20.1 °F 13.6 °F 17.4 °F 89% 30.03 in 5.0 mi WSW 4.6 mph - N/A Snow Light Snow
3:55 AM 19.4 °F 11.5 °F 16.7 °F 89% 30.03 in 5.0 mi WSW 5.8 mph - N/A Snow Light Snow
4:15 AM 19.2 °F - 16.5 °F 89% 30.02 in 5.0 mi Calm Calm - N/A Snow Light Snow
4:35 AM 19.0 °F 13.9 °F 16.3 °F 89% 30.02 in 10.0 mi SW 3.5 mph - N/A   Overcast
4:55 AM 19.2 °F - 16.2 °F 88% 30.01 in 10.0 mi Calm Calm - N/A   Overcast
5:15 AM 19.4 °F - 15.4 °F 85% 30.01 in 10.0 mi Calm Calm - N/A   Overcast
5:35 AM 19.4 °F - 14.9 °F 83% 30.01 in 10.0 mi Calm Calm - N/A   Overcast
5:55 AM 19.4 °F 12.8 °F 15.8 °F 86% 30.01 in 10.0 mi SW 4.6 mph - N/A   Overcast
6:15 AM 19.8 °F 13.2 °F 14.7 °F 81% 30.01 in 10.0 mi SW 4.6 mph - N/A   Overcast
6:35 AM 19.9 °F 14.9 °F 15.4 °F 83% 30.00 in 7.0 mi WSW 3.5 mph - N/A Snow Light Snow
6:55 AM 19.6 °F 13.0 °F 16.3 °F 87% 30.00 in 4.0 mi SSW 4.6 mph - N/A Snow Light Snow
7:15 AM 19.4 °F - 16.5 °F 89% 30.00 in 10.0 mi Calm Calm - N/A   Overcast
7:35 AM 19.4 °F 12.8 °F 16.0 °F 87% 30.00 in 10.0 mi SSW 4.6 mph - N/A   Overcast
7:55 AM 19.4 °F - 16.5 °F 89% 30.00 in 10.0 mi Calm Calm - N/A   Overcast
8:15 AM 19.9 °F 13.4 °F 16.2 °F 85% 30.00 in 10.0 mi SW 4.6 mph - N/A   Overcast
8:35 AM 20.3 °F 15.4 °F 16.2 °F 84% 30.00 in 10.0 mi WSW 3.5 mph - N/A   Overcast
8:55 AM 20.3 °F 10.6 °F 16.3 °F 85% 30.00 in 10.0 mi West 8.1 mph - N/A Snow Light Snow
9:15 AM 20.3 °F 9.8 °F 16.5 °F 85% 30.00 in 2.0 mi WNW 9.2 mph - N/A Snow Light Snow
9:35 AM 19.2 °F 11.3 °F 13.3 °F 78% 30.00 in 10.0 mi West 5.8 mph - N/A   Mostly Cloudy
9:55 AM 20.3 °F 10.6 °F 14.5 °F 78% 30.00 in 10.0 mi West 8.1 mph - N/A   Mostly Cloudy
10:15 AM 21.4 °F 11.1 °F 12.6 °F 69% 30.00 in 10.0 mi NW 9.2 mph - N/A   Mostly Cloudy
10:35 AM 21.6 °F 9.9 °F 11.3 °F 65% 30.01 in 10.0 mi WNW 11.5 mph 16.1 mph N/A   Mostly Cloudy
10:55 AM 21.0 °F 9.3 °F 11.5 °F 67% 30.01 in 10.0 mi WNW 11.5 mph - N/A   Overcast
11:15 AM 21.9 °F 9.8 °F 11.7 °F 65% 30.01 in 10.0 mi West 12.7 mph 16.1 mph N/A   Overcast
11:35 AM 21.7 °F 11.5 °F 11.5 °F 65% 30.01 in 10.0 mi NW 9.2 mph - N/A   Overcast
11:55 AM 21.4 °F 9.7 °F 11.3 °F 65% 30.01 in 10.0 mi WNW 11.5 mph 16.1 mph N/A   Overcast
12:15 PM 23.2 °F 13.3 °F 10.9 °F 60% 30.01 in 10.0 mi NW 9.2 mph 16.1 mph N/A   Overcast
12:35 PM 21.0 °F 9.9 °F 10.0 °F 63% 30.00 in 10.0 mi WNW 10.4 mph - N/A   Overcast
12:55 PM 21.6 °F 11.3 °F 9.3 °F 59% 29.99 in 10.0 mi NW 9.2 mph - N/A   Overcast
1:15 PM 22.5 °F 13.2 °F 8.8 °F 56% 29.99 in 10.0 mi West 8.1 mph - N/A   Overcast
1:35 PM 23.2 °F 12.6 °F 8.1 °F 52% 29.98 in 10.0 mi West 10.4 mph - N/A   Overcast
1:55 PM 22.3 °F 13.0 °F 7.5 °F 53% 29.98 in 10.0 mi West 8.1 mph - N/A   Overcast
2:15 PM 22.8 °F 15.5 °F 7.2 °F 51% 29.98 in 10.0 mi WNW 5.8 mph - N/A   Overcast
2:35 PM 21.4 °F 11.1 °F 11.3 °F 65% 29.98 in 7.0 mi NW 9.2 mph - N/A Rain Light Freezing Rain
2:55 PM 21.0 °F 10.6 °F 11.8 °F 68% 29.98 in 4.0 mi WNW 9.2 mph - N/A Snow Light Snow
3:15 PM 21.0 °F 9.9 °F 11.1 °F 66% 29.98 in 7.0 mi NW 10.4 mph 18.4 mph N/A Snow Light Snow
3:35 PM 20.7 °F 11.0 °F 8.1 °F 58% 29.98 in 10.0 mi WNW 8.1 mph - N/A   Overcast
3:55 PM 21.2 °F 10.9 °F 10.2 °F 63% 29.99 in 7.0 mi WNW 9.2 mph 17.3 mph N/A   Overcast
4:15 PM 22.3 °F 12.2 °F 9.0 °F 57% 29.99 in 10.0 mi WNW 9.2 mph - N/A   Overcast
4:35 PM 20.8 °F 10.4 °F 5.9 °F 53% 29.99 in 10.0 mi West 9.2 mph - N/A   Mostly Cloudy
4:55 PM 19.9 °F 7.3 °F 12.0 °F 71% 30.00 in 10.0 mi West 12.7 mph 18.4 mph N/A   Scattered Clouds
5:15 PM 20.7 °F 11.9 °F 15.1 °F 79% 30.00 in 10.0 mi West 6.9 mph - N/A   Mostly Cloudy
5:35 PM 20.3 °F 9.0 °F 12.0 °F 70% 30.00 in 5.0 mi West 10.4 mph - N/A Snow Light Snow
5:55 PM 18.9 °F 8.0 °F 12.4 °F 76% 30.01 in 10.0 mi West 9.2 mph - N/A   Mostly Cloudy
6:15 PM 17.1 °F 5.8 °F 12.2 °F 81% 30.01 in 10.0 mi West 9.2 mph - N/A   Clear
6:35 PM 16.5 °F 8.1 °F 12.0 °F 82% 30.02 in 10.0 mi West 5.8 mph - N/A   Clear
6:55 PM 16.0 °F 10.4 °F 11.7 °F 83% 30.02 in 7.0 mi West 3.5 mph - N/A Snow Light Snow
7:15 PM 15.6 °F 7.0 °F 12.4 °F 87% 30.03 in 10.0 mi West 5.8 mph - N/A   Clear
7:35 PM 15.8 °F 7.2 °F 12.2 °F 86% 30.03 in 10.0 mi West 5.8 mph - N/A   Clear
7:55 PM 15.8 °F 7.2 °F 11.8 °F 84% 30.03 in 10.0 mi West 5.8 mph - N/A   Clear
8:15 PM 15.1 °F 7.7 °F 11.7 °F 86% 30.04 in 10.0 mi West 4.6 mph - N/A   Clear
8:35 PM 14.7 °F 7.3 °F 11.7 °F 88% 30.04 in 10.0 mi West 4.6 mph - N/A   Clear
8:55 PM 14.5 °F 5.7 °F 11.8 °F 89% 30.04 in 10.0 mi West 5.8 mph - N/A   Clear
9:15 PM 14.2 °F 8.4 °F 11.8 °F 90% 30.04 in 10.0 mi West 3.5 mph - N/A   Clear
9:35 PM 13.8 °F 8.0 °F 11.3 °F 90% 30.04 in 10.0 mi West 3.5 mph - N/A   Clear
9:55 PM 13.6 °F - 11.3 °F 90% 30.04 in 10.0 mi Calm Calm - N/A   Clear
10:15 PM 13.6 °F - 11.3 °F 90% 30.04 in 10.0 mi Calm Calm - N/A   Clear
10:35 PM 12.7 °F - 10.9 °F 92% 30.04 in 10.0 mi Calm Calm - N/A   Clear
10:55 PM 12.7 °F - 10.9 °F 92% 30.05 in 10.0 mi Calm Calm - N/A   Clear
11:15 PM 12.7 °F 6.7 °F 10.8 °F 92% 30.05 in 10.0 mi West 3.5 mph - N/A   Clear
11:35 PM 13.1 °F - 10.9 °F 91% 30.05 in 10.0 mi Calm Calm - N/A   Clear
11:55 PM 12.9 °F - 10.8 °F 91% 30.05 in 10.0 mi Calm Calm - N/A   Clear